User: anonymous   Login
Location: Linz
(48.3300°N, 14.3000°E)
Time: 18:54:37
(UTC+01:00)
Language:

Envisat - Orbit

View from above orbital plane
View from above orbital plane
View from above satellite
View from above satellite

Ground track
Ground track

The orbit data is extracted from the following two-line orbital elements,

1 27386U 02009A   18055.14840992 -.00000006 +00000-0 +11601-4 0  9993
2 27386 098.1991 094.4520 0001290 090.3616 269.7723 14.37915993837281
Epoch (UTC): 24 February 2018 03:33:42
Eccentricity: 0.0001290
inclination: 98.1991°
perigee height: 764 km
apogee height: 766 km
right ascension of ascending node: 94.4520°
argument of perigee: 90.3616°
revolutions per day: 14.37915993
mean anomaly at epoch: 269.7723°
orbit number at epoch: 83728

The dashed part of the orbit path shows where the satellite is in the earth's shadow,  

DLR